When you browse on this site, cookies collect data to enhance your experience and personalize the content and advertising you see.
Visit our Privacy Policy to learn more. By continuing to use the site, you agree to this use of cookies and data.
  • en France
  • Liste des pays
  • À 7 jours
  • Température de l'eau
  • Carte météo
  • Widgets météo
  • user-avatar
    Se connecter

    Météo par heure à Natal

    Ce jour, 21 Août, Mercredi

    Heure Température Précipitation Vent Pression Humidité
    00:00 +23°C° 0 mm 5 m/s 762 mmHg 85%
    01:00 +23°C° 0 mm 5 m/s 762 mmHg 86%
    02:00 +23°C° 0 mm 5 m/s 762 mmHg 87%
    03:00 +22°C° 0 mm 5 m/s 762 mmHg 88%
    04:00 +22°C° 0 mm 5 m/s 761 mmHg 88%
    05:00 +22°C° 0 mm 5 m/s 762 mmHg 88%
    06:00 +22°C° 0 mm 5 m/s 762 mmHg 87%
    07:00 +22°C° 0 mm 5 m/s 762 mmHg 87%
    08:00 +24°C° 0 mm 6 m/s 762 mmHg 79%
    09:00 +27°C° 0 mm 6 m/s 763 mmHg 71%
    10:00 +29°C° 0 mm 7 m/s 763 mmHg 64%
    11:00 +29°C° 0 mm 7 m/s 762 mmHg 61%
    12:00 +30°C° 0 mm 7 m/s 762 mmHg 59%
    13:00 +30°C° 0 mm 7 m/s 762 mmHg 57%
    14:00 +30°C° 0 mm 7 m/s 761 mmHg 58%
    15:00 +30°C° 0 mm 7 m/s 761 mmHg 60%
    16:00 +29°C° 0 mm 7 m/s 760 mmHg 61%
    17:00 +28°C° 0 mm 6 m/s 760 mmHg 67%
    18:00 +27°C° 0 mm 6 m/s 761 mmHg 72%
    19:00 +26°C° 0 mm 5 m/s 761 mmHg 78%
    20:00 +25°C° 0 mm 5 m/s 761 mmHg 80%
    21:00 +25°C° 0 mm 5 m/s 761 mmHg 83%
    22:00 +23°C° 0 mm 5 m/s 762 mmHg 86%
    23:00 +25°C° 0 mm 5 m/s 762 mmHg 86%

    Demain, 22 Août, Jeudi

    Heure Température Précipitation Vent Pression Humidité
    00:00 +25°C° 0 mm 5 m/s 761 mmHg 85%
    01:00 +25°C° 0 mm 5 m/s 761 mmHg 85%
    02:00 +23°C° 0 mm 5 m/s 761 mmHg 87%
    03:00 +23°C° 0 mm 5 m/s 761 mmHg 88%
    04:00 +23°C° 0 mm 5 m/s 760 mmHg 90%
    05:00 +22°C° 0 mm 5 m/s 761 mmHg 90%
    06:00 +22°C° 0 mm 5 m/s 761 mmHg 90%
    07:00 +22°C° 0 mm 4 m/s 761 mmHg 90%
    08:00 +25°C° 0 mm 5 m/s 762 mmHg 84%
    09:00 +27°C° 0 mm 5 m/s 762 mmHg 77%
    10:00 +29°C° 0 mm 6 m/s 762 mmHg 70%
    11:00 +29°C° 0 mm 6 m/s 762 mmHg 66%
    12:00 +30°C° 0 mm 6 m/s 761 mmHg 62%
    13:00 +32°C° 0 mm 7 m/s 761 mmHg 59%
    14:00 +32°C° 0 mm 7 m/s 760 mmHg 60%
    15:00 +30°C° 0 mm 7 m/s 760 mmHg 62%
    16:00 +30°C° 0 mm 7 m/s 759 mmHg 64%
    17:00 +29°C° 0 mm 7 m/s 760 mmHg 69%
    18:00 +28°C° 0 mm 7 m/s 760 mmHg 74%
    19:00 +27°C° 0 mm 7 m/s 760 mmHg 79%
    20:00 +26°C° 0.1 mm 7 m/s 761 mmHg 80%
    21:00 +26°C° 0.1 mm 7 m/s 761 mmHg 81%
    22:00 +26°C° 0.1 mm 7 m/s 762 mmHg 82%
    23:00 +26°C° 0 mm 7 m/s 762 mmHg 83%

    Après-demain, 23 Août, Vendredi

    Heure Température Précipitation Vent Pression Humidité
    00:00 +26°C° 0 mm 7 m/s 762 mmHg 84%
    01:00 +24°C° 0 mm 6 m/s 761 mmHg 85%
    02:00 +24°C° 0.1 mm 6 m/s 761 mmHg 86%
    03:00 +24°C° 0.1 mm 6 m/s 761 mmHg 87%
    04:00 +23°C° 0.1 mm 6 m/s 761 mmHg 88%
    05:00 +23°C° 0.1 mm 6 m/s 761 mmHg 88%
    06:00 +23°C° 0.1 mm 5 m/s 761 mmHg 88%
    07:00 +23°C° 0.1 mm 5 m/s 762 mmHg 88%
    08:00 +26°C° 0 mm 6 m/s 762 mmHg 79%
    09:00 +27°C° 0 mm 6 m/s 762 mmHg 70%
    10:00 +29°C° 0 mm 7 m/s 762 mmHg 60%
    11:00 +30°C° 0 mm 7 m/s 762 mmHg 56%
    12:00 +32°C° 0 mm 7 m/s 761 mmHg 51%
    13:00 +32°C° 0 mm 7 m/s 761 mmHg 46%
    14:00 +32°C° 0 mm 7 m/s 760 mmHg 48%
    15:00 +32°C° 0 mm 7 m/s 760 mmHg 49%
    16:00 +30°C° 0 mm 7 m/s 759 mmHg 51%
    17:00 +29°C° 0 mm 7 m/s 760 mmHg 59%
    18:00 +27°C° 0 mm 6 m/s 760 mmHg 67%
    19:00 +26°C° 0 mm 6 m/s 761 mmHg 74%
    20:00 +26°C° 0 mm 6 m/s 761 mmHg 77%
    21:00 +26°C° 0 mm 6 m/s 762 mmHg 79%
    22:00 +24°C° 0 mm 6 m/s 762 mmHg 81%
    23:00 +24°C° 0 mm 6 m/s 762 mmHg 83%

    24 Août, Samedi

    Heure Température Précipitation Vent Pression Humidité
    00:00 +24°C° 0 mm 6 m/s 762 mmHg 84%
    01:00 +23°C° 0 mm 6 m/s 762 mmHg 85%
    02:00 +23°C° 0 mm 6 m/s 761 mmHg 87%
    03:00 +23°C° 0 mm 6 m/s 761 mmHg 88%
    04:00 +23°C° 0 mm 6 m/s 761 mmHg 89%
    05:00 +23°C° 0 mm 6 m/s 761 mmHg 89%
    06:00 +23°C° 0 mm 5 m/s 761 mmHg 89%
    07:00 +23°C° 0 mm 5 m/s 761 mmHg 89%
    08:00 +25°C° 0.1 mm 5 m/s 762 mmHg 84%
    09:00 +26°C° 0.1 mm 6 m/s 762 mmHg 78%
    10:00 +28°C° 0.1 mm 6 m/s 762 mmHg 72%
    11:00 +29°C° 0.1 mm 6 m/s 762 mmHg 70%
    12:00 +29°C° 0.1 mm 6 m/s 762 mmHg 67%
    13:00 +30°C° 0.1 mm 6 m/s 761 mmHg 65%
    14:00 +30°C° 0.2 mm 6 m/s 761 mmHg 67%
    15:00 +29°C° 0.2 mm 6 m/s 761 mmHg 69%
    16:00 +29°C° 0.2 mm 6 m/s 760 mmHg 71%
    17:00 +28°C° 0.1 mm 6 m/s 761 mmHg 75%
    18:00 +27°C° 0.1 mm 5 m/s 761 mmHg 78%
    19:00 +26°C° 0.1 mm 5 m/s 762 mmHg 81%
    20:00 +26°C° 0.1 mm 5 m/s 762 mmHg 83%
    21:00 +26°C° 0.1 mm 5 m/s 762 mmHg 84%
    22:00 +26°C° 0.1 mm 5 m/s 763 mmHg 85%
    23:00 +26°C° 0.2 mm 5 m/s 762 mmHg 84%

    25 Août, Dimanche

    Heure Température Précipitation Vent Pression Humidité
    00:00 +25°C° 0.2 mm 5 m/s 762 mmHg 84%
    01:00 +25°C° 0.2 mm 5 m/s 762 mmHg 84%
    02:00 +25°C° 0.3 mm 5 m/s 762 mmHg 85%
    03:00 +25°C° 0.3 mm 5 m/s 761 mmHg 85%
    04:00 +25°C° 0.3 mm 5 m/s 761 mmHg 86%
    05:00 +25°C° 0.2 mm 5 m/s 761 mmHg 86%
    06:00 +25°C° 0.2 mm 5 m/s 762 mmHg 85%
    07:00 +25°C° 0.2 mm 5 m/s 762 mmHg 85%
    08:00 +26°C° 0.1 mm 6 m/s 762 mmHg 79%
    09:00 +27°C° 0.1 mm 6 m/s 763 mmHg 72%
    10:00 +29°C° 0.1 mm 7 m/s 763 mmHg 66%
    11:00 +29°C° 0 mm 7 m/s 763 mmHg 64%
    12:00 +30°C° 0 mm 7 m/s 762 mmHg 63%
    13:00 +31°C° 0 mm 8 m/s 762 mmHg 61%
    14:00 +30°C° 0 mm 7 m/s 761 mmHg 62%
    15:00 +29°C° 0 mm 7 m/s 761 mmHg 63%
    16:00 +29°C° 0 mm 7 m/s 761 mmHg 64%
    17:00 +28°C° 0.1 mm 6 m/s 761 mmHg 68%
    18:00 +27°C° 0.1 mm 6 m/s 762 mmHg 73%
    19:00 +26°C° 0.1 mm 6 m/s 762 mmHg 78%
    20:00 +26°C° 0.2 mm 6 m/s 762 mmHg 80%
    21:00 +26°C° 0.2 mm 6 m/s 763 mmHg 81%
    22:00 +24°C° 0.2 mm 6 m/s 763 mmHg 83%
    23:00 +24°C° 0.1 mm 6 m/s 763 mmHg 83%

    26 Août, Lundi

    Heure Température Précipitation Vent Pression Humidité
    00:00 +24°C° 0.1 mm 6 m/s 762 mmHg 83%
    01:00 +24°C° 0.1 mm 6 m/s 762 mmHg 83%
    02:00 +24°C° 0.1 mm 6 m/s 762 mmHg 84%
    03:00 +23°C° 0.1 mm 5 m/s 762 mmHg 86%
    04:00 +23°C° 0.1 mm 5 m/s 761 mmHg 87%
    05:00 +23°C° 0.3 mm 5 m/s 761 mmHg 87%
    06:00 +23°C° 0.3 mm 6 m/s 762 mmHg 87%
    07:00 +24°C° 0.3 mm 6 m/s 762 mmHg 87%
    08:00 +26°C° 0.1 mm 6 m/s 762 mmHg 78%
    09:00 +27°C° 0.1 mm 7 m/s 762 mmHg 70%
    10:00 +29°C° 0.1 mm 8 m/s 762 mmHg 61%
    11:00 +29°C° 0 mm 8 m/s 762 mmHg 60%
    12:00 +31°C° 0 mm 8 m/s 762 mmHg 58%
    13:00 +31°C° 0 mm 8 m/s 761 mmHg 56%
    14:00 +31°C° 0 mm 8 m/s 761 mmHg 59%
    15:00 +29°C° 0 mm 8 m/s 760 mmHg 61%
    16:00 +29°C° 0 mm 8 m/s 760 mmHg 63%
    17:00 +28°C° 0.1 mm 8 m/s 760 mmHg 67%
    18:00 +27°C° 0.1 mm 7 m/s 761 mmHg 71%
    19:00 +26°C° 0.1 mm 7 m/s 761 mmHg 75%
    20:00 +26°C° 0 mm 7 m/s 761 mmHg 77%
    21:00 +24°C° 0 mm 6 m/s 762 mmHg 78%
    22:00 +24°C° 0 mm 6 m/s 762 mmHg 80%
    23:00 +24°C° 0 mm 6 m/s 762 mmHg 80%
    Voir plus